Location: Risskov
(56.1972°N, 10.2480°E)
Time: 23:51:56
(UTC+00:00)

Cosmos 1825 - Pass Details

Date: 05 July 2020
Orbit: 502 x 509 km, 82.5° (Epoch: 14 August)

Event Time Altitude Azimuth Distance (km) Brightness Sun altitude
Exits shadow 21:58:00 13° 157° (SSE) 1,570 4.0 -9.1°
Maximum altitude 22:01:04 36° 93° (E) 826 3.0 -9.2°
Drops below altitude 10° 22:04:35 10° 26° (NNE) 1,743 5.6 -9.4°
Sets 22:06:49 0° 18° (NNE) 2,635 6.8 -9.5°
